STARLINK-5485, 57261

Orbit data source: Space-Track

STARLINK-5485, 57261 is a payload satellite owned by SpaceX/Seattle (US) in LEO that was launched on Fri, 07 Jul 2023 UTC via an FALCON 9 launch vehicle from the Air Force Western Test Range (AFWTR). Payload-class satellites include a variety of spacecraft equipped with specific instruments for various scientific and technological missions. These include communications satellites like Starlink; space stations such as the ISS; scientific satellites like the Hubble; Earth observation satellites from companies like Planet Labs, Umbra, and HawkEye 360; GPS; miniature CubeSats for education and research; and military/defense satellites.

Loading next visibility...
Identifier
57261, 2023-094AV
Orbit
LEO
Country
Flag of USUS
Related business
Manufacturer
SpaceX/Seattle
Mission
Operational Commercial Communications
Bus & Motor
STARLINK, Unknown motor
Mass
305 kg wet, ~290 kg dry
Launch date (UTC)
2023-07-07 (3 years ago)
Launch vehicle
FALCON 9
Launch site
Air Force Western Test Range (AFWTR)
Object type
Payload
Rocket body
Debris
Shape & HBR
Box + 1 Pan, 10.1 m
Radar Cross Section
11.087 m², Large (>1 m²)

Expand to show TLE details & history
Last TLE update: 20 hours ago

TLE from 20 hours ago
0 STARLINK-5485
1 57261U 23094AV  26167.33927293  .00002060  00000-0  84351-4 0  9992
2 57261  43.0036 193.5143 0001787 270.4048  89.6599 15.27590250162206
Epoch: 2026-06-16T08:08Z
TLE epoch observation values (Epoch: 2026-06-16T08:08:33.181Z)
Latitude
Longitude
166.76332°
Altitude
482.787 km
Speed
7.626 km/s
True Right ascension
12h 54m 03s
True Declination
0° 00' 00"
Sunlit
Object was in daylight at epoch
Visualization orbit readout
Latitude
Unknown
Longitude
Unknown
Altitude
Unknown
Speed
Unknown
Apparent Right ascension
Unknown
Apparent Declination
Unknown
Sunlit
N/A
Visualization observer readout
Local Sidereal Time
14:31:59
Azimuth
Unknown
Elevation
Unknown
Doppler factor
Unknown
Orbital elements
Apogee altitude
486.189 km
Perigee altitude
483.737 km
Semi-major axis
6,863.1 km
Eccentricity
0.00018
Inclination
43.0036°
RAAN
193.5143°
Arg. of periapsis
270.4048°
True anomaly
89.68038°
Mean anomaly
89.6599°
Eccentric anomaly
89.67014°
Mean motion
3.81736 °/min
Orbital period
94.31 mins
BSTAR
0.000084351
Loading maneuver chart data...
Computing Atmospheric mass density...
Loading historical data...
Loading historical data...
Loading historical data...
Loading historical data...
Loading historical data...
Loading historical data...
Loading historical data...

Documentation

Showing up to 5 results
|